Location: Bernadets
(43.3537°N, 0.3167°E)
Time: 01:04:33
(UTC+00:00)

USA 229 - Pass Details

Date: 24 October 2021
Orbit: 946 x 1266 km, 63.4° (Epoch: 25 November)

Event Time Altitude Azimuth Distance (km) Brightness Sun altitude
Rises 17:23:34 0° 180° (S) 3,610 6.6 -4.8°
Reaches altitude 10° 17:26:23 10° 169° (S) 2,688 5.8 -5.3°
Maximum altitude 17:31:39 29° 112° (ESE) 1,727 4.4 -6.2°
Drops below altitude 10° 17:37:12 10° 55° (NE) 2,838 5.4 -7.2°
Enters shadow 17:39:31 - 46° (NE) 3,601 6.0 -7.6°
